Location: Unspecified
(48.8582°N, 2.2947°E)
Time: 03:46:32
(UTC+02:00)

ISS - Pass Details

Date: 01 April 2019
Orbit: 411 x 421 km, 51.6° (Epoch: 14 October)

Event Time Altitude Azimuth Distance (km) Brightness Sun altitude
Rises 21:34:23 0° 287° (WNW) 2,355 2.1 -12.4°
Reaches altitude 10° 21:36:29 10° 291° (WNW) 1,489 0.6 -12.7°
Maximum altitude 21:39:49 66° 14° (NNE) 456 -3.6 -13.2°
Enters shadow 21:41:36 24° 91° (E) 891 -2.6 -13.5°
